Augusta Bush, GA

11:16 AM EST on January 23, 2018 (GMT -0500)
Augusta Regional At Bush

Weather History for KAGS - September, 2013

Change the Weather History Date:

Wednesday, September 11, 2013

  Actual Average Record
Temperature  
Mean Temperature 76 °F 76 °F  
Max Temperature 91 °F 88 °F 99 °F (2002)
Min Temperature 61 °F 64 °F 46 °F (1956)
Degree Days  
Heating Degree Days 0 0  
Month to date heating degree days 0 0  
Since 1 July heating degree days 0 0  
Cooling Degree Days 11 11  
Month to date cooling degree days 155 138  
Year to date cooling degree days 1630 1826  
Growing Degree Days 26 (Base 50)    
Moisture  
Dew Point 65 °F    
Average Humidity 69    
Maximum Humidity 100    
Minimum Humidity 38    
Precipitation  
Precipitation 0.00 in 0.11 in 4.10 in (2017)
Month to date precipitation 0.14 1.19  
Year to date precipitation 45.46 32.06  
Sea Level Pressure  
Sea Level Pressure 30.17 in    
Wind  
Wind Speed 2 mph (East)    
Max Wind Speed 14 mph    
Max Gust Speed 17 mph    
Visibility 4 miles    
Events Fog    
T = Trace of Precipitation, MM = Missing Value Source: NWS Daily Summary

Daily Weather History Graph

Daily Weather History Graph

Search for Another Location

Airport or City:

Trip Planner

Search our weather history database for the weather conditions in past years. The results will help you decide how hot, cold, wet, or windy it might be!

Date:

Astronomy

Sep. 11, 2013 Rise Set
Actual Time 7:08 AM EDT 7:39 PM EDT
Civil Twilight 6:43 AM EDT 8:04 PM EDT
Nautical Twilight 6:14 AM EDT 8:33 PM EDT
Astronomical Twilight 5:44 AM EDT 9:03 PM EDT
Moon 1:16 PM EDT (9/11) 11:53 PM EDT (9/11)
Length of Visible Light 13h 20m
Length of Day
12h 30m
Waxing Crescent, 38% of the Moon is Illuminated
Sep 11
Waxing Crescent
Sep 12
First Quarter
Sep 19
Full
Sep 26
Last Quarter
Oct 4
New

Hourly Weather History & Observations

Time (EDT) Temp. Heat Index Dew Point Humidity Pressure Visibility Wind Dir Wind Speed Gust Speed Precip Events Conditions
12:13 AM 66.2 °F - 66.2 °F 100% 30.20 in 1.8 mi Calm Calm - N/A   Clear
12:25 AM 64.4 °F - 64.4 °F 100% 30.20 in 0.2 mi Calm Calm - 0.01 in Fog Fog
12:38 AM 66.2 °F - 66.2 °F 100% 30.20 in 1.0 mi Calm Calm - 0.01 in   Clear
12:41 AM 66.2 °F - 66.2 °F 100% 30.20 in 3.0 mi Calm Calm - 0.01 in   Clear
12:53 AM 68.0 °F - 66.9 °F 96% 30.19 in 6.0 mi Calm Calm - 0.01 in   Clear
1:53 AM 64.9 °F - 64.9 °F 100% 30.19 in 1.2 mi Calm Calm - N/A   Clear
2:03 AM 66.2 °F - 66.2 °F 100% 30.19 in 3.0 mi North 3.5 mph - N/A   Clear
2:29 AM 64.4 °F - 64.4 °F 100% 30.18 in 0.8 mi Calm Calm - N/A   Clear
2:41 AM 64.4 °F - 64.4 °F 100% 30.18 in 2.0 mi Calm Calm - N/A   Clear
2:53 AM 66.0 °F - 64.9 °F 96% 30.17 in 2.5 mi Calm Calm - N/A   Clear
3:04 AM 64.4 °F - 64.4 °F 100% 30.18 in 5.0 mi Calm Calm - 0.01 in   Clear
3:50 AM 64.4 °F - 64.4 °F 100% 30.17 in 1.5 mi Calm Calm - 0.01 in   Clear
3:53 AM 64.0 °F - 64.0 °F 100% 30.17 in 1.0 mi Calm Calm - 0.01 in   Clear
3:59 AM 64.4 °F - 64.4 °F 100% 30.17 in 0.5 mi Calm Calm - N/A Fog Fog
4:06 AM 64.4 °F - 64.4 °F 100% 30.17 in 0.2 mi Calm Calm - N/A Fog Fog
4:14 AM 64.4 °F - 64.4 °F 100% 30.17 in 1.0 mi Calm Calm - N/A   Mist
4:16 AM 64.4 °F - 64.4 °F 100% 30.17 in 2.0 mi Calm Calm - N/A   Partly Cloudy
4:24 AM 64.4 °F - 64.4 °F 100% 30.17 in 4.0 mi West 3.5 mph - N/A   Partly Cloudy
4:35 AM 62.6 °F - 62.6 °F 100% 30.17 in 1.8 mi Calm Calm - N/A   Clear
4:53 AM 63.0 °F - 63.0 °F 100% 30.17 in 1.0 mi Calm Calm - N/A   Clear
5:07 AM 64.4 °F - 64.4 °F 100% 30.18 in 0.8 mi Calm Calm - N/A   Clear
5:12 AM 64.4 °F - 64.4 °F 100% 30.18 in 2.0 mi Calm Calm - N/A   Clear
5:22 AM 62.6 °F - 62.6 °F 100% 30.18 in 1.0 mi Calm Calm - N/A   Mist
5:28 AM 62.6 °F - 62.6 °F 100% 30.18 in 0.2 mi Calm Calm - N/A Fog Fog
5:43 AM 62.6 °F - 62.6 °F 100% 30.18 in 1.0 mi Calm Calm - 0.01 in   Mist
5:50 AM 62.6 °F - 62.6 °F 100% 30.18 in 2.0 mi Calm Calm - 0.01 in   Partly Cloudy
5:51 AM 63.0 °F - 62.1 °F 97% 30.18 in 2.5 mi Calm Calm - 0.01 in   Partly Cloudy
5:58 AM 64.4 °F - 62.6 °F 94% 30.18 in 5.0 mi Calm Calm - N/A   Partly Cloudy
6:04 AM 62.6 °F - 62.6 °F 100% 30.19 in 1.2 mi Calm Calm - N/A   Clear
6:12 AM 62.6 °F - 62.6 °F 100% 30.18 in 0.5 mi Calm Calm - N/A Fog Fog
6:21 AM 62.6 °F - 62.6 °F 100% 30.19 in 0.8 mi Calm Calm - N/A   Mist
6:35 AM 62.6 °F - 62.6 °F 100% 30.19 in 1.2 mi Calm Calm - N/A   Partly Cloudy
6:38 AM 62.6 °F - 62.6 °F 100% 30.19 in 3.0 mi Calm Calm - N/A   Partly Cloudy
6:53 AM 63.0 °F - 63.0 °F 100% 30.19 in 3.0 mi Calm Calm - N/A   Clear
7:00 AM 60.8 °F - 60.8 °F 100% 30.20 in 3.0 mi Calm Calm - N/A   Clear
7:53 AM 64.9 °F - 64.0 °F 97% 30.20 in 3.0 mi NNW 4.6 mph - N/A   Clear
8:34 AM 68.0 °F - 68.0 °F 100% 30.21 in 6.0 mi Calm Calm - N/A   Clear
8:53 AM 70.0 °F - 69.1 °F 97% 30.21 in 6.0 mi Calm Calm - N/A   Clear
9:53 AM 77.0 °F - 70.0 °F 79% 30.22 in 6.0 mi Calm Calm - N/A   Haze
10:53 AM 82.0 °F 85.9 °F 70.0 °F 67% 30.21 in 10.0 mi East 4.6 mph - N/A   Clear
11:53 AM 84.9 °F 88.2 °F 68.0 °F 57% 30.20 in 10.0 mi Variable 3.5 mph - N/A   Clear
12:53 PM 87.1 °F 89.9 °F 66.9 °F 51% 30.19 in 10.0 mi ESE 6.9 mph - N/A   Clear
1:53 PM 88.0 °F 90.7 °F 66.9 °F 49% 30.16 in 10.0 mi Variable 5.8 mph - N/A   Partly Cloudy
2:53 PM 90.0 °F 89.7 °F 60.1 °F 37% 30.14 in 10.0 mi ESE 8.1 mph - N/A   Scattered Clouds
3:53 PM 90.0 °F 89.7 °F 60.1 °F 37% 30.12 in 10.0 mi East 6.9 mph - N/A   Partly Cloudy
4:53 PM 89.1 °F 89.0 °F 61.0 °F 39% 30.10 in 10.0 mi South 4.6 mph - N/A   Clear
5:53 PM 89.1 °F 89.3 °F 62.1 °F 40% 30.09 in 10.0 mi Calm Calm - N/A   Partly Cloudy
6:53 PM 86.0 °F 88.8 °F 66.9 °F 53% 30.08 in 10.0 mi Calm Calm - N/A   Clear
7:53 PM 77.0 °F - 70.0 °F 79% 30.09 in 10.0 mi Calm Calm - 0.01 in   Clear
8:53 PM 75.0 °F - 70.0 °F 84% 30.10 in 10.0 mi Calm Calm - N/A   Clear
9:53 PM 73.9 °F - 70.0 °F 87% 30.12 in 10.0 mi Calm Calm - N/A   Scattered Clouds
10:53 PM 69.1 °F - 69.1 °F 100% 30.11 in 6.0 mi Calm Calm - N/A   Clear
11:53 PM 68.0 °F - 68.0 °F 100% 30.10 in 5.0 mi Calm Calm - N/A   Clear